LiveATC.Net - Listen to live air traffic control over the Internet!


ICAO: EIKN  IATA: NOC   Airport: Ireland West Airport Knock
City: Charlestown
Country: Ireland   Continent: Europe
EIKN METAR Weather: EIKN 250900Z 20009KT 170V240 9999 VCSH SCT020CB SCT024 BKN040 10/09 Q1004 NOSIG
EIKN Flight Activity (FlightAware)
EIKN Gnd/Twr/App
Feed Status: UP   Listeners: 1
Listen right in your browser - requires Flash (in browser, requires Flash)
Click here to listen with your own player (launches your MP3 player)
EIKN Gnd/Twr/App Audio Archives
FacilityFrequency
Connaught Ground121.900
Connaught Tower130.700
Shannon Low Level119.075

Special Note: Sponsored by CAC

NOTICE

Unauthorized use prohibited. See LiveATC.net Terms of Service


Find LiveATC Audio Streams


Airport/ARTCC Code

Frequency
(e.g., 124.400, 128.75)
Site-wide search

Browse LiveATC Feeds
LiveATC Coverage Map
Top 50 LiveATC Feeds
Bad Weather Areas

LiveATC FAQ
Offer a LiveATC Feed
Contact LiveATC.net
Press Inquiries

LiveATC on iPhone
LiveATC on Android

Windows Phone
Windows 8/10

LiveATC Mobile
(Mobile browser)

ATC Audio Archives
Interesting Recordings

LiveATC Forums


Home Page
About LiveATC.net
Make a Donation
LiveATC Store

Terms of Use
Privacy Policy

Canadian Air Freqs

AIRMETs/SIGMETs

FAA Airport Status
Nat'l Airspace Status
Arrival Demand Charts


Server Software By:
Icecast.org
Liquidsoap